Regional Weather Roundup
Issued by NWS Albany, NY

Home | Current Version | Previous Version | Text Only | Print | Product List | Glossary On
Versions: 1 2 3 4 5 6 7 8 9 10 11 12 13 14 15 16 17 18 19 20 21 22 23 24 25 26 27 28 29 30 31 32 33 34 35 36 37 38 39 40 41 42 43 44 45 46 47 48 49 50
000
ASUS41 KALY 201510
RWRALY

NEW YORK STATE HOURLY WEATHER ROUNDUP
NATIONAL WEATHER SERVICE ALBANY NY
1100 AM EDT WED AUG 20 2014

NOTE: "FAIR" INDICATES FEW OR NO CLOUDS BELOW 12,000 FEET WITH NO
SIGNIFICANT WEATHER AND/OR NO OBSTRUCTIONS TO VISIBILITY.

NYZ032-033-038>043-046>054-057>066-NYZ062>081-201600-
EAST


CITY           SKY/WX    TMP DP  RH WIND       PRES   REMARKS
ALBANY         CLOUDY    73  63  70 S9        30.00S
GLENS FALLS    PTSUNNY   71  59  65 SE7       30.00S
POUGHKEEPSIE   SUNNY     78  62  57 SW6       29.99S
NEWBURGH       MOSUNNY   75  66  73 VRB6      30.02S
MONTGOMERY     PTSUNNY   76  64  66 S6        30.01S
WHITE PLAINS   MOSUNNY   76  62  62 SE5       30.02R
ISLIP          MOSUNNY   77  61  57 CALM      30.00S
NEW YORK CITY  MOSUNNY   79  58  48 S5        30.00S
CENTRAL PARK   MOSUNNY   78  59  51 CALM      30.04R
$$

NYZ005>009-017-018-044>046-055-056-201600-
CENTRAL


CITY           SKY/WX    TMP DP  RH WIND       PRES   REMARKS
FULTON         MOSUNNY   75  66  73 VRB5      29.94R
SYRACUSE       PTSUNNY   78  67  68 VRB3      29.93S
ROME           PTSUNNY   73  64  73 E8        29.97R
ELMIRA         PTSUNNY   76  69  79 W8        29.95R
BINGHAMTON     CLOUDY    70  65  84 SW7G16    30.01R
MONTICELLO     MOSUNNY   73  64  73 S7        30.05R
$$

NYZ026>034-041>043-201600-
NORTH


CITY           SKY/WX    TMP DP  RH WIND       PRES   REMARKS
WATERTOWN      MOSUNNY   77  64  64 SW6       29.93S
FORT DRUM      NOT AVBL
MASSENA        MOSUNNY   73  61  65 NE9       29.97S
SARANAC LAKE   MOSUNNY   72  58  61 CALM      29.99S
PLATTSBURGH    SUNNY     69  59  70 E6        29.99S
$$

NYZ001>004-010>016-019>021-201600-
WEST


CITY           SKY/WX    TMP DP  RH WIND       PRES   REMARKS
NIAGARA FALLS  LGT RAIN  73  65  75 S8        29.90S
BUFFALO        CLOUDY    74  62  66 S12       29.92R
DUNKIRK        CLOUDY    73  64  73 S17G25    29.92R
JAMESTOWN      CLOUDY    64  61  88 S9        29.96S
WELLSVILLE     CLOUDY    70  65  84 SW7       30.01R
ROCHESTER      CLOUDY    72  66  81 S3        29.93R
PENN YAN       LGT RAIN  70  67  90 SW6       29.96R FOG
$$

             KEY
       WCI = WIND CHILL INDEX
       VSB = VISIBILITY
       HX  = HEAT INDEX
$$



USA.gov is the U.S. government's official web portal to all federal, state and local government web resources and services.